GFSMA_prec_kuchsnow_225.txt.gz
Snowfall_Accumulation
0.0 0.0 0.0 0.0 0.0 0.0 0.0 0.0 0.0 0.0 0.0 0.0 0.0 0.0 0.0 0.0 0.0 0.0 0.0 0.0 0.0 0.0 0.0 0.0 0.0 0.0 0.0 0.0 0.0 0.0 0.0 0.0 0.0 0.0 0.0 0.0 0.0 0.0 0.0 0.0 0.0 0.0 0.0
0.0 0.0 0.0 0.0 0.0 0.0 0.0 0.0 0.0 0.0 0.0 0.0 0.0 0.0 0.0 0.0 0.0 0.0 0.0 0.0 0.0 0.0 0.0 0.0 0.0 0.0 0.0 0.0 0.0 0.0 0.0 0.0 0.0 0.0 0.0 0.0 0.0 0.0 0.0 0.0 0.0 0.0 0.0
0.0 0.0 0.0 0.0 0.0 0.0 0.0 0.0 0.0 0.0 0.0 0.0 0.0 0.0 0.0 0.0 0.0 0.0 0.0 0.0 0.0 0.0 0.0 0.0 0.0 0.0 0.0 0.0 0.0 0.0 0.0 0.0 0.0 0.0 0.0 0.0 0.0 0.0 0.0 0.0 0.0 0.0 0.0
0.0 0.0 0.0 0.0 0.0 0.0 0.0 0.0 0.0 0.0 0.0 0.0 0.0 0.0 0.0 0.0 0.0 0.0 0.0 0.0 0.0 0.0 0.0 0.0 0.0 0.0 0.0 0.0 0.0 0.0 0.0 0.0 0.0 0.0 0.0 0.0 0.0 0.0 0.0 0.0 0.0 0.0 0.0
0.0 0.0 0.0 0.0 0.0 0.0 0.0 0.0 0.0 0.0 0.0 0.0 0.0 0.0 0.0 0.0 0.0 0.0 0.0 0.0 0.0 0.0 0.0 0.0 0.0 0.0 0.0 0.0 0.0 0.0 0.0 0.0 0.0 0.0 0.0 0.0 0.0 0.0 0.0 0.0 0.0 0.0 0.0
0.0 0.0 0.0 0.0 0.0 0.0 0.0 0.0 0.0 0.0 0.0 0.0 0.0 0.0 0.0 0.0 0.0 0.0 0.0 0.0 0.0 0.0 0.0 0.0 0.0 0.0 0.0 0.0 0.0 0.0 0.0 0.0 0.0 0.0 0.0 0.0 0.0 0.0 0.0 0.0 0.0 0.0 0.0
0.0 0.0 0.0 0.0 0.0 0.0 0.0 0.0 0.0 0.0 0.0 0.0 0.0 0.0 0.0 0.0 0.0 0.0 0.0 0.0 0.0 0.0 0.0 0.0 0.0 0.0 0.0 0.0 0.0 0.0 0.0 0.0 0.0 0.0 0.0 0.0 0.0 0.0 0.0 0.0 0.0 0.0 0.0
0.0 0.0 0.0 0.0 0.0 0.0 0.0 0.0 0.0 0.0 0.0 0.0 0.0 0.0 0.0 0.0 0.0 0.0 0.0 0.0 0.0 0.0 0.0 0.0 0.0 0.0 0.0 0.0 0.0 0.0 0.0 0.0 0.0 0.0 0.0 0.0 0.0 0.0 0.0 0.0 0.0 0.0 0.0
0.0 0.0 0.0 0.0 0.0 0.0 0.0 0.0 0.0 0.0 0.0 0.0 0.0 0.0 0.0 0.0 0.0 0.0 0.0 0.0 0.0 0.0 0.0 0.0 0.0 0.0 0.0 0.0 0.0 0.0 0.0 0.0 0.0 0.0 0.0 0.0 0.0 0.0 0.0 0.0 0.0 0.0 0.0
0.0 0.0 0.0 0.0 0.0 0.0 0.0 0.0 0.0 0.0 0.0 0.0 0.0 0.0 0.0 0.0 0.1 0.0 0.0 0.0 0.0 0.0 0.0 0.0 0.0 0.0 0.0 0.0 0.0 0.0 0.0 0.0 0.0 0.0 0.0 0.0 0.0 0.0 0.0 0.0 0.0 0.0 0.0
0.0 0.0 0.0 0.0 0.0 0.0 0.0 0.0 0.0 0.0 0.0 0.0 0.0 0.0 0.0 0.0 0.0 0.2 0.0 0.0 0.0 0.0 0.0 0.0 0.0 0.0 0.0 0.0 0.0 0.0 0.0 0.0 0.0 0.0 0.0 0.0 0.0 0.0 0.0 0.0 0.0 0.0 0.0
0.0 0.0 0.0 0.0 0.0 0.0 0.0 0.0 0.0 0.0 0.0 0.0 0.0 0.0 0.1 0.2 0.0 0.2 0.2 0.0 0.0 0.0 0.0 0.0 0.0 0.0 0.0 0.0 0.0 0.0 0.0 0.0 0.0 0.0 0.0 0.0 0.0 0.0 0.0 0.0 0.0 0.0 0.0
0.0 0.0 0.0 0.0 0.0 0.0 0.0 0.0 0.0 0.1 0.1 0.1 0.1 0.2 0.1 0.1 0.2 0.2 0.3 0.1 0.2 0.0 0.0 0.0 0.0 0.0 0.0 0.0 0.0 0.0 0.0 0.0 0.0 0.0 0.0 0.0 0.0 0.0 0.0 0.0 0.0 0.0 0.0
0.1 0.0 0.0 0.0 0.0 0.0 0.0 0.0 0.1 0.1 0.1 0.1 0.1 0.2 0.2 0.2 0.2 0.4 0.6 1.9 1.4 0.0 0.1 0.3 0.0 0.1 0.0 0.0 0.0 0.0 0.0 0.0 0.0 0.0 0.0 0.0 0.0 0.0 0.0 0.0 0.0 0.0 0.0
0.0 0.1 0.0 0.0 0.0 0.0 0.0 0.0 0.1 0.0 0.0 0.1 0.2 0.1 0.3 0.2 0.3 0.3 0.5 0.7 2.8 3.8 0.7 0.1 0.4 0.1 0.0 0.0 0.0 0.0 0.0 0.0 0.0 0.0 0.0 0.0 0.0 0.0 0.0 0.0 0.0 0.0 0.0
0.0 0.0 0.1 0.1 0.1 0.0 0.0 0.0 0.0 0.0 0.0 0.1 0.2 0.2 0.3 0.3 0.3 0.3 0.5 0.4 0.7 1.3 1.3 0.4 0.5 0.4 0.2 0.0 0.1 0.0 0.1 0.0 0.0 0.0 0.0 0.0 0.0 0.0 0.0 0.0 0.0 0.0 0.0
0.2 0.1 0.1 0.2 0.3 0.2 0.1 0.1 0.1 0.1 0.0 0.1 0.1 0.2 0.2 0.2 0.1 0.3 0.3 0.5 0.6 0.9 1.2 1.0 0.6 0.6 0.5 0.4 0.2 0.1 0.0 0.0 0.0 0.0 0.0 0.0 0.0 0.0 0.0 0.0 0.0 0.0 0.0
2.3 2.0 1.6 1.1 1.1 0.6 1.2 0.3 0.4 1.6 1.7 0.5 0.7 0.6 0.8 0.2 0.4 0.2 0.1 0.4 0.6 1.0 1.2 1.7 1.5 1.4 1.3 0.9 0.6 0.4 0.3 0.2 0.1 0.1 0.0 0.0 0.0 0.0 0.0 0.0 0.0 0.0 0.1
7.4 7.0 5.7 4.8 4.4 5.1 4.6 7.4 3.8 1.6 2.3 3.7 3.7 3.1 2.1 1.8 1.4 1.4 1.1 0.5 0.7 0.6 0.5 2.1 2.3 1.8 1.3 1.1 0.9 0.6 0.6 0.3 0.2 0.1 0.0 0.0 0.0 0.0 0.1 0.0 0.1 0.1 0.0
8.6 11.0 14.4 14.3 12.2 8.0 8.9 7.4 7.0 7.4 4.0 6.2 7.5 3.2 3.1 4.1 3.5 2.3 3.3 2.5 2.1 1.4 1.7 1.6 2.0 2.6 3.9 2.1 1.5 1.7 2.6 0.9 0.8 0.3 0.4 0.2 0.1 0.1 0.0 0.1 0.1 0.1 0.2
3.7 9.3 10.3 10.6 9.1 7.6 7.1 4.5 2.9 7.2 6.3 6.0 9.8 7.3 4.7 3.8 3.7 2.5 1.1 3.3 2.7 4.2 6.2 5.1 5.2 7.3 9.8 7.2 7.0 6.3 8.2 7.8 6.8 5.3 3.6 3.4 0.6 0.2 0.2 0.2 0.1 0.1 0.1
0.0 0.6 1.1 0.6 4.0 3.2 2.1 0.8 0.5 1.8 3.5 2.7 2.9 2.9 2.2 1.4 1.7 2.4 2.3 1.5 2.0 4.0 5.4 6.8 7.3 7.9 10.5 11.1 9.4 9.2 12.0 11.4 11.3 9.0 10.6 10.9 7.0 6.1 8.4 6.8 2.2 3.4 1.3
0.8 0.3 0.2 0.1 0.0 0.2 0.3 0.2 0.0 0.2 0.4 1.1 1.1 0.8 0.9 0.5 0.5 0.9 1.4 1.3 1.3 1.3 2.9 2.9 4.2 4.7 5.2 5.0 4.5 5.1 5.7 6.9 9.6 7.8 8.2 8.9 7.9 8.9 7.9 7.0 6.0 6.1 5.2
1.4 1.4 3.3 1.4 1.3 0.1 0.1 0.0 0.1 0.0 0.0 0.0 0.5 0.2 0.3 0.1 0.3 0.2 1.2 0.9 0.3 0.6 0.7 0.7 1.1 1.1 0.6 0.7 1.1 1.2 2.7 2.6 1.8 1.5 1.2 4.8 3.0 4.6 3.9 1.9 0.3 1.6 1.5
2.9 2.4 2.3 0.8 1.3 0.4 0.2 0.3 0.1 0.0 0.7 0.6 0.2 0.0 0.0 0.0 0.0 0.7 1.0 1.2 0.4 0.4 0.1 0.1 0.3 0.4 0.1 0.2 0.2 2.2 6.2 6.9 6.9 4.0 1.5 3.1 2.4 2.3 2.5 2.0 1.6 1.5 1.4
3.0 2.8 2.2 1.4 0.8 0.8 0.3 0.5 0.4 0.4 0.4 0.2 0.2 0.1 0.0 0.2 1.1 1.4 2.6 2.3 2.2 2.7 2.5 1.9 1.7 1.4 1.1 0.7 2.5 1.6 3.7 6.8 4.5 5.3 1.7 4.8 5.1 7.4 9.3 6.3 6.1 5.5 5.0

GFSMA_prec_kuchsnow_228.txt.gz
Snowfall_Accumulation
0.0 0.0 0.0 0.0 0.0 0.0 0.0 0.0 0.0 0.0 0.0 0.0 0.0 0.0 0.0 0.0 0.0 0.0 0.0 0.0 0.0 0.0 0.0 0.0 0.0 0.0 0.0 0.0 0.0 0.0 0.0 0.0 0.0 0.0 0.0 0.0 0.0 0.0 0.0 0.0 0.0 0.0 0.0
0.0 0.0 0.0 0.0 0.0 0.0 0.0 0.0 0.0 0.0 0.0 0.0 0.0 0.0 0.0 0.0 0.0 0.0 0.0 0.0 0.0 0.0 0.0 0.0 0.0 0.0 0.0 0.0 0.0 0.0 0.0 0.0 0.0 0.0 0.0 0.0 0.0 0.0 0.0 0.0 0.0 0.0 0.0
0.0 0.0 0.0 0.0 0.0 0.0 0.0 0.0 0.0 0.0 0.0 0.0 0.0 0.0 0.0 0.0 0.0 0.0 0.0 0.0 0.0 0.0 0.0 0.0 0.0 0.0 0.0 0.0 0.0 0.0 0.0 0.0 0.0 0.0 0.0 0.0 0.0 0.0 0.0 0.0 0.0 0.0 0.0
0.0 0.0 0.0 0.0 0.0 0.0 0.0 0.0 0.0 0.0 0.0 0.0 0.0 0.0 0.0 0.0 0.0 0.0 0.0 0.0 0.0 0.0 0.0 0.0 0.0 0.0 0.0 0.0 0.0 0.0 0.0 0.0 0.0 0.0 0.0 0.0 0.0 0.0 0.0 0.0 0.0 0.0 0.0
0.0 0.0 0.0 0.0 0.0 0.0 0.0 0.0 0.0 0.0 0.0 0.0 0.0 0.0 0.0 0.0 0.0 0.0 0.0 0.0 0.0 0.0 0.0 0.0 0.0 0.0 0.0 0.0 0.0 0.0 0.0 0.0 0.0 0.0 0.0 0.0 0.0 0.0 0.0 0.0 0.0 0.0 0.0
0.0 0.0 0.0 0.0 0.0 0.0 0.0 0.0 0.0 0.0 0.0 0.0 0.0 0.0 0.0 0.0 0.0 0.0 0.0 0.0 0.0 0.0 0.0 0.0 0.0 0.0 0.0 0.0 0.0 0.0 0.0 0.0 0.0 0.0 0.0 0.0 0.0 0.0 0.0 0.0 0.0 0.0 0.0
0.0 0.0 0.0 0.0 0.0 0.0 0.0 0.0 0.0 0.0 0.0 0.0 0.0 0.0 0.0 0.0 0.0 0.0 0.0 0.0 0.0 0.0 0.0 0.0 0.0 0.0 0.0 0.0 0.0 0.0 0.0 0.0 0.0 0.0 0.0 0.0 0.0 0.0 0.0 0.0 0.0 0.0 0.0
0.0 0.0 0.0 0.0 0.0 0.0 0.0 0.0 0.0 0.0 0.0 0.0 0.0 0.0 0.0 0.0 0.0 0.0 0.0 0.0 0.0 0.0 0.0 0.0 0.0 0.0 0.0 0.0 0.0 0.0 0.0 0.0 0.0 0.0 0.0 0.0 0.0 0.0 0.0 0.0 0.0 0.0 0.0
0.0 0.0 0.0 0.0 0.0 0.0 0.0 0.0 0.0 0.0 0.0 0.0 0.0 0.0 0.0 0.0 0.0 0.0 0.0 0.0 0.0 0.0 0.0 0.0 0.0 0.0 0.0 0.0 0.0 0.0 0.0 0.0 0.0 0.0 0.0 0.0 0.0 0.0 0.0 0.0 0.0 0.0 0.0
0.0 0.0 0.0 0.0 0.0 0.0 0.0 0.0 0.0 0.0 0.0 0.0 0.0 0.0 0.0 0.0 0.1 0.0 0.0 0.0 0.0 0.0 0.0 0.0 0.0 0.0 0.0 0.0 0.0 0.0 0.0 0.0 0.0 0.0 0.0 0.0 0.0 0.0 0.0 0.0 0.0 0.0 0.0
0.0 0.0 0.0 0.0 0.0 0.0 0.0 0.0 0.0 0.0 0.0 0.0 0.0 0.0 0.0 0.0 0.0 0.2 0.0 0.0 0.0 0.0 0.0 0.0 0.0 0.0 0.0 0.0 0.0 0.0 0.0 0.0 0.0 0.0 0.0 0.0 0.0 0.0 0.0 0.0 0.0 0.0 0.0
0.0 0.0 0.0 0.0 0.0 0.0 0.0 0.0 0.0 0.0 0.0 0.0 0.0 0.0 0.1 0.2 0.0 0.2 0.2 0.0 0.0 0.0 0.0 0.0 0.0 0.0 0.0 0.0 0.0 0.0 0.0 0.0 0.0 0.0 0.0 0.0 0.0 0.0 0.0 0.0 0.0 0.0 0.0
0.0 0.0 0.0 0.0 0.0 0.0 0.0 0.0 0.0 0.1 0.1 0.1 0.1 0.2 0.1 0.1 0.2 0.2 0.3 0.1 0.2 0.0 0.0 0.0 0.0 0.0 0.0 0.0 0.0 0.0 0.0 0.0 0.0 0.0 0.0 0.0 0.0 0.0 0.0 0.0 0.0 0.0 0.0
0.1 0.0 0.0 0.0 0.0 0.0 0.0 0.0 0.1 0.1 0.1 0.1 0.1 0.2 0.2 0.2 0.2 0.4 0.6 1.9 1.4 0.0 0.1 0.3 0.0 0.1 0.0 0.0 0.0 0.0 0.0 0.0 0.0 0.0 0.0 0.0 0.0 0.0 0.0 0.0 0.0 0.0 0.0
0.0 0.1 0.0 0.0 0.0 0.0 0.0 0.0 0.1 0.0 0.0 0.1 0.2 0.1 0.3 0.2 0.3 0.3 0.5 0.7 2.8 3.8 0.7 0.1 0.4 0.1 0.0 0.0 0.0 0.0 0.0 0.0 0.0 0.0 0.0 0.0 0.0 0.0 0.0 0.0 0.0 0.0 0.0
0.0 0.0 0.1 0.1 0.1 0.0 0.0 0.0 0.0 0.0 0.0 0.1 0.2 0.2 0.3 0.3 0.3 0.3 0.5 0.4 0.7 1.3 1.3 0.4 0.5 0.4 0.2 0.0 0.1 0.0 0.1 0.0 0.0 0.0 0.0 0.0 0.0 0.0 0.0 0.0 0.0 0.0 0.0
0.2 0.1 0.1 0.2 0.3 0.2 0.1 0.1 0.1 0.1 0.0 0.1 0.1 0.2 0.2 0.2 0.1 0.3 0.3 0.5 0.6 0.9 1.2 1.0 0.6 0.6 0.5 0.4 0.2 0.1 0.0 0.0 0.0 0.0 0.0 0.0 0.0 0.0 0.0 0.0 0.0 0.0 0.0
2.3 2.0 1.6 1.1 1.1 0.6 1.2 0.3 0.4 1.6 1.7 0.5 0.7 0.6 0.8 0.2 0.4 0.2 0.1 0.4 0.6 1.0 1.2 1.7 1.5 1.4 1.3 0.9 0.6 0.4 0.3 0.2 0.1 0.1 0.0 0.0 0.0 0.0 0.0 0.0 0.0 0.0 0.1
7.4 7.0 5.7 4.8 4.4 5.1 4.6 7.4 3.8 1.6 2.3 3.7 3.7 3.1 2.1 1.8 1.4 1.4 1.1 0.5 0.7 0.6 0.5 2.1 2.3 1.8 1.3 1.1 0.9 0.6 0.6 0.3 0.2 0.1 0.0 0.0 0.0 0.0 0.1 0.0 0.1 0.1 0.0
8.6 11.0 14.4 14.3 12.2 8.0 8.9 7.4 7.0 7.4 4.0 6.2 7.5 3.2 3.1 4.1 3.5 2.3 3.3 2.5 2.1 1.4 1.7 1.6 2.0 2.6 3.9 2.1 1.5 1.7 2.6 0.9 0.8 0.3 0.4 0.2 0.1 0.1 0.0 0.1 0.1 0.1 0.2
3.7 9.3 10.3 10.6 9.1 7.6 7.1 4.5 2.9 7.2 6.3 6.0 9.8 7.3 4.7 3.8 3.7 2.5 1.1 3.3 2.7 4.2 6.2 5.1 5.2 7.3 9.8 7.2 7.0 6.3 8.2 7.8 6.8 5.3 3.6 3.4 0.6 0.2 0.2 0.2 0.1 0.1 0.1
0.0 0.6 1.1 0.6 4.0 3.2 2.1 0.8 0.5 1.8 3.5 2.7 2.9 2.9 2.2 1.4 1.7 2.4 2.3 1.5 2.0 4.0 5.4 6.8 7.3 7.9 10.5 11.1 9.4 9.2 12.0 11.4 12.7 9.0 10.6 10.9 7.0 6.1 8.4 6.8 2.2 3.4 1.3
0.8 0.3 0.2 0.1 0.0 0.2 0.3 0.2 0.0 0.2 0.4 1.1 1.1 0.8 0.9 0.5 0.5 0.9 1.4 1.3 1.3 1.3 2.9 2.9 4.2 4.7 5.2 5.0 4.5 5.1 5.7 6.9 9.6 7.8 8.2 9.7 7.9 9.0 7.9 7.0 6.0 6.1 5.2
1.4 1.4 3.3 1.4 1.3 0.1 0.1 0.0 0.1 0.0 0.0 0.0 0.5 0.2 0.3 0.1 0.3 0.2 1.2 0.9 0.3 0.6 0.7 0.7 1.1 1.1 0.6 0.7 1.1 1.2 2.7 2.6 2.4 1.5 1.2 6.8 3.7 5.0 4.0 2.0 0.3 1.6 1.5
2.9 2.4 2.3 0.8 1.3 0.4 0.2 0.3 0.1 0.0 0.7 0.6 0.2 0.0 0.0 0.0 0.0 0.7 1.0 1.2 0.4 0.4 0.1 0.1 0.3 0.4 0.1 0.2 0.2 2.2 6.2 9.5 10.2 6.9 3.0 5.4 4.3 3.7 3.2 2.5 1.8 1.5 1.5
3.0 2.8 2.2 1.4 0.8 0.8 0.3 0.5 0.4 0.4 0.4 0.2 0.2 0.1 0.0 0.2 1.1 1.4 2.6 2.3 2.2 2.7 2.5 1.9 1.7 1.4 1.1 0.7 2.5 1.6 4.6 7.7 5.4 7.4 3.2 6.0 6.4 8.2 10.3 6.8 6.4 5.6 5.1

GFSMA_prec_kuchsnow_231.txt.gz
Snowfall_Accumulation
0.0 0.0 0.0 0.0 0.0 0.0 0.0 0.0 0.0 0.0 0.0 0.0 0.0 0.0 0.0 0.0 0.0 0.0 0.0 0.0 0.0 0.0 0.0 0.0 0.0 0.0 0.0 0.0 0.0 0.0 0.0 0.0 0.0 0.0 0.0 0.0 0.0 0.0 0.0 0.0 0.0 0.0 0.0
0.0 0.0 0.0 0.0 0.0 0.0 0.0 0.0 0.0 0.0 0.0 0.0 0.0 0.0 0.0 0.0 0.0 0.0 0.0 0.0 0.0 0.0 0.0 0.0 0.0 0.0 0.0 0.0 0.0 0.0 0.0 0.0 0.0 0.0 0.0 0.0 0.0 0.0 0.0 0.0 0.0 0.0 0.0
0.0 0.0 0.0 0.0 0.0 0.0 0.0 0.0 0.0 0.0 0.0 0.0 0.0 0.0 0.0 0.0 0.0 0.0 0.0 0.0 0.0 0.0 0.0 0.0 0.0 0.0 0.0 0.0 0.0 0.0 0.0 0.0 0.0 0.0 0.0 0.0 0.0 0.0 0.0 0.0 0.0 0.0 0.0
0.0 0.0 0.0 0.0 0.0 0.0 0.0 0.0 0.0 0.0 0.0 0.0 0.0 0.0 0.0 0.0 0.0 0.0 0.0 0.0 0.0 0.0 0.0 0.0 0.0 0.0 0.0 0.0 0.0 0.0 0.0 0.0 0.0 0.0 0.0 0.0 0.0 0.0 0.0 0.0 0.0 0.0 0.0
0.0 0.0 0.0 0.0 0.0 0.0 0.0 0.0 0.0 0.0 0.0 0.0 0.0 0.0 0.0 0.0 0.0 0.0 0.0 0.0 0.0 0.0 0.0 0.0 0.0 0.0 0.0 0.0 0.0 0.0 0.0 0.0 0.0 0.0 0.0 0.0 0.0 0.0 0.0 0.0 0.0 0.0 0.0
0.0 0.0 0.0 0.0 0.0 0.0 0.0 0.0 0.0 0.0 0.0 0.0 0.0 0.0 0.0 0.0 0.0 0.0 0.0 0.0 0.0 0.0 0.0 0.0 0.0 0.0 0.0 0.0 0.0 0.0 0.0 0.0 0.0 0.0 0.0 0.0 0.0 0.0 0.0 0.0 0.0 0.0 0.0
0.0 0.0 0.0 0.0 0.0 0.0 0.0 0.0 0.0 0.0 0.0 0.0 0.0 0.0 0.0 0.0 0.0 0.0 0.0 0.0 0.0 0.0 0.0 0.0 0.0 0.0 0.0 0.0 0.0 0.0 0.0 0.0 0.0 0.0 0.0 0.0 0.0 0.0 0.0 0.0 0.0 0.0 0.0
0.0 0.0 0.0 0.0 0.0 0.0 0.0 0.0 0.0 0.0 0.0 0.0 0.0 0.0 0.0 0.0 0.0 0.0 0.0 0.0 0.0 0.0 0.0 0.0 0.0 0.0 0.0 0.0 0.0 0.0 0.0 0.0 0.0 0.0 0.0 0.0 0.0 0.0 0.0 0.0 0.0 0.0 0.0
0.0 0.0 0.0 0.0 0.0 0.0 0.0 0.0 0.0 0.0 0.0 0.0 0.0 0.0 0.0 0.0 0.0 0.0 0.0 0.0 0.0 0.0 0.0 0.0 0.0 0.0 0.0 0.0 0.0 0.0 0.0 0.0 0.0 0.0 0.0 0.0 0.0 0.0 0.0 0.0 0.0 0.0 0.0
0.0 0.0 0.0 0.0 0.0 0.0 0.0 0.0 0.0 0.0 0.0 0.0 0.0 0.0 0.0 0.0 0.1 0.0 0.0 0.0 0.0 0.0 0.0 0.0 0.0 0.0 0.0 0.0 0.0 0.0 0.0 0.0 0.0 0.0 0.0 0.0 0.0 0.0 0.0 0.0 0.0 0.0 0.0
0.0 0.0 0.0 0.0 0.0 0.0 0.0 0.0 0.0 0.0 0.0 0.0 0.0 0.0 0.0 0.0 0.0 0.2 0.0 0.0 0.0 0.0 0.0 0.0 0.0 0.0 0.0 0.0 0.0 0.0 0.0 0.0 0.0 0.0 0.0 0.0 0.0 0.0 0.0 0.0 0.0 0.0 0.0
0.0 0.0 0.0 0.0 0.0 0.0 0.0 0.0 0.0 0.0 0.0 0.0 0.0 0.0 0.1 0.2 0.0 0.2 0.2 0.0 0.0 0.0 0.0 0.0 0.0 0.0 0.0 0.0 0.0 0.0 0.0 0.0 0.0 0.0 0.0 0.0 0.0 0.0 0.0 0.0 0.0 0.0 0.0
0.0 0.0 0.0 0.0 0.0 0.0 0.0 0.0 0.0 0.1 0.1 0.1 0.1 0.2 0.1 0.1 0.2 0.2 0.3 0.1 0.2 0.0 0.0 0.0 0.0 0.0 0.0 0.0 0.0 0.0 0.0 0.0 0.0 0.0 0.0 0.0 0.0 0.0 0.0 0.0 0.0 0.0 0.0
0.1 0.0 0.0 0.0 0.0 0.0 0.0 0.0 0.1 0.1 0.1 0.1 0.1 0.2 0.2 0.2 0.2 0.4 0.6 1.9 1.4 0.0 0.1 0.3 0.0 0.1 0.0 0.0 0.0 0.0 0.0 0.0 0.0 0.0 0.0 0.0 0.0 0.0 0.0 0.0 0.0 0.0 0.0
0.0 0.1 0.0 0.0 0.0 0.0 0.0 0.0 0.1 0.0 0.0 0.1 0.2 0.1 0.3 0.2 0.3 0.3 0.5 0.7 2.8 3.8 0.7 0.1 0.4 0.1 0.0 0.0 0.0 0.0 0.0 0.0 0.0 0.0 0.0 0.0 0.0 0.0 0.0 0.0 0.0 0.0 0.0
0.0 0.0 0.1 0.1 0.1 0.0 0.0 0.0 0.0 0.0 0.0 0.1 0.2 0.2 0.3 0.3 0.3 0.3 0.5 0.4 0.7 1.3 1.3 0.4 0.5 0.4 0.2 0.0 0.1 0.0 0.1 0.0 0.0 0.0 0.0 0.0 0.0 0.0 0.0 0.0 0.0 0.0 0.0
0.2 0.1 0.1 0.2 0.3 0.2 0.1 0.1 0.1 0.1 0.0 0.1 0.1 0.2 0.2 0.2 0.1 0.3 0.3 0.5 0.6 0.9 1.2 1.0 0.6 0.6 0.5 0.4 0.2 0.1 0.0 0.0 0.0 0.0 0.0 0.0 0.0 0.0 0.0 0.0 0.0 0.0 0.0
2.3 2.0 1.6 1.1 1.1 0.6 1.2 0.3 0.4 1.6 1.7 0.5 0.7 0.6 0.8 0.2 0.4 0.2 0.1 0.4 0.6 1.0 1.2 1.7 1.5 1.4 1.3 0.9 0.6 0.4 0.3 0.2 0.1 0.1 0.0 0.0 0.0 0.0 0.0 0.0 0.0 0.0 0.1
7.4 7.0 5.7 4.8 4.4 5.1 4.6 7.4 3.8 1.6 2.3 3.7 3.7 3.1 2.1 1.8 1.4 1.4 1.1 0.5 0.7 0.6 0.5 2.1 2.3 1.8 1.3 1.1 0.9 0.6 0.6 0.3 0.2 0.1 0.0 0.0 0.0 0.0 0.1 0.0 0.1 0.1 0.0
8.6 11.0 14.4 14.3 12.2 8.0 8.9 7.4 7.0 7.4 4.0 6.2 7.5 3.2 3.1 4.1 3.5 2.3 3.3 2.5 2.1 1.4 1.7 1.6 2.0 2.6 3.9 2.1 1.5 1.7 2.6 0.9 0.8 0.3 0.4 0.2 0.1 0.1 0.0 0.1 0.1 0.1 0.2
3.7 9.3 10.3 10.6 9.1 7.6 7.1 4.5 2.9 7.2 6.3 6.0 9.8 7.3 4.7 3.8 3.7 2.5 1.1 3.3 2.7 4.2 6.2 5.1 5.2 7.3 9.8 7.2 7.0 6.3 8.2 7.8 6.8 5.3 3.6 3.4 0.6 0.2 0.2 0.2 0.1 0.1 0.1
0.0 0.6 1.1 0.6 4.0 3.2 2.1 0.8 0.5 1.8 3.5 2.7 2.9 2.9 2.2 1.4 1.7 2.4 2.3 1.5 2.0 4.0 5.4 6.8 7.3 7.9 10.5 11.1 9.4 9.2 12.0 11.4 12.7 9.0 10.6 10.9 7.0 6.1 8.4 6.8 2.2 3.4 1.3
0.8 0.3 0.2 0.1 0.0 0.2 0.3 0.2 0.0 0.2 0.4 1.1 1.1 0.8 0.9 0.5 0.5 0.9 1.4 1.3 1.3 1.3 2.9 2.9 4.2 4.7 5.2 5.0 4.5 5.1 5.7 6.9 9.6 7.8 8.2 9.7 7.9 9.0 7.9 7.0 6.0 6.1 5.2
1.4 1.4 3.3 1.4 1.3 0.1 0.1 0.0 0.1 0.0 0.0 0.0 0.5 0.2 0.3 0.1 0.3 0.2 1.2 0.9 0.3 0.6 0.7 0.7 1.1 1.1 0.6 0.7 1.1 1.2 2.7 2.6 2.4 1.5 1.2 8.0 3.7 5.0 4.0 2.0 0.3 1.6 1.5
2.9 2.4 2.3 0.8 1.3 0.4 0.2 0.3 0.1 0.0 0.7 0.6 0.2 0.0 0.0 0.0 0.0 0.7 1.0 1.2 0.4 0.4 0.1 0.1 0.3 0.4 0.1 0.2 0.2 2.2 6.2 12.0 13.1 9.3 3.0 7.1 6.6 5.8 4.6 2.5 1.8 1.5 1.5
3.0 2.8 2.2 1.4 0.8 0.8 0.3 0.5 0.4 0.4 0.4 0.2 0.2 0.1 0.0 0.2 1.1 1.4 2.6 2.3 2.2 2.7 2.5 1.9 1.7 1.4 1.1 0.7 2.5 1.6 4.6 9.2 6.5 9.6 5.6 7.4 7.9 9.6 14.4 9.1 6.9 5.6 5.1

GFSMA_prec_kuchsnow_234.txt.gz
Snowfall_Accumulation
0.0 0.0 0.0 0.0 0.0 0.0 0.0 0.0 0.0 0.0 0.0 0.0 0.0 0.0 0.0 0.0 0.0 0.0 0.0 0.0 0.0 0.0 0.0 0.0 0.0 0.0 0.0 0.0 0.0 0.0 0.0 0.0 0.0 0.0 0.0 0.0 0.0 0.0 0.0 0.0 0.0 0.0 0.0
0.0 0.0 0.0 0.0 0.0 0.0 0.0 0.0 0.0 0.0 0.0 0.0 0.0 0.0 0.0 0.0 0.0 0.0 0.0 0.0 0.0 0.0 0.0 0.0 0.0 0.0 0.0 0.0 0.0 0.0 0.0 0.0 0.0 0.0 0.0 0.0 0.0 0.0 0.0 0.0 0.0 0.0 0.0
0.0 0.0 0.0 0.0 0.0 0.0 0.0 0.0 0.0 0.0 0.0 0.0 0.0 0.0 0.0 0.0 0.0 0.0 0.0 0.0 0.0 0.0 0.0 0.0 0.0 0.0 0.0 0.0 0.0 0.0 0.0 0.0 0.0 0.0 0.0 0.0 0.0 0.0 0.0 0.0 0.0 0.0 0.0
0.0 0.0 0.0 0.0 0.0 0.0 0.0 0.0 0.0 0.0 0.0 0.0 0.0 0.0 0.0 0.0 0.0 0.0 0.0 0.0 0.0 0.0 0.0 0.0 0.0 0.0 0.0 0.0 0.0 0.0 0.0 0.0 0.0 0.0 0.0 0.0 0.0 0.0 0.0 0.0 0.0 0.0 0.0
0.0 0.0 0.0 0.0 0.0 0.0 0.0 0.0 0.0 0.0 0.0 0.0 0.0 0.0 0.0 0.0 0.0 0.0 0.0 0.0 0.0 0.0 0.0 0.0 0.0 0.0 0.0 0.0 0.0 0.0 0.0 0.0 0.0 0.0 0.0 0.0 0.0 0.0 0.0 0.0 0.0 0.0 0.0
0.0 0.0 0.0 0.0 0.0 0.0 0.0 0.0 0.0 0.0 0.0 0.0 0.0 0.0 0.0 0.0 0.0 0.0 0.0 0.0 0.0 0.0 0.0 0.0 0.0 0.0 0.0 0.0 0.0 0.0 0.0 0.0 0.0 0.0 0.0 0.0 0.0 0.0 0.0 0.0 0.0 0.0 0.0
0.0 0.0 0.0 0.0 0.0 0.0 0.0 0.0 0.0 0.0 0.0 0.0 0.0 0.0 0.0 0.0 0.0 0.0 0.0 0.0 0.0 0.0 0.0 0.0 0.0 0.0 0.0 0.0 0.0 0.0 0.0 0.0 0.0 0.0 0.0 0.0 0.0 0.0 0.0 0.0 0.0 0.0 0.0
0.0 0.0 0.0 0.0 0.0 0.0 0.0 0.0 0.0 0.0 0.0 0.0 0.0 0.0 0.0 0.0 0.0 0.0 0.0 0.0 0.0 0.0 0.0 0.0 0.0 0.0 0.0 0.0 0.0 0.0 0.0 0.0 0.0 0.0 0.0 0.0 0.0 0.0 0.0 0.0 0.0 0.0 0.0
0.0 0.0 0.0 0.0 0.0 0.0 0.0 0.0 0.0 0.0 0.0 0.0 0.0 0.0 0.0 0.0 0.0 0.0 0.0 0.0 0.0 0.0 0.0 0.0 0.0 0.0 0.0 0.0 0.0 0.0 0.0 0.0 0.0 0.0 0.0 0.0 0.0 0.0 0.0 0.0 0.0 0.0 0.0
0.0 0.0 0.0 0.0 0.0 0.0 0.0 0.0 0.0 0.0 0.0 0.0 0.0 0.0 0.0 0.0 0.1 0.0 0.0 0.0 0.0 0.0 0.0 0.0 0.0 0.0 0.0 0.0 0.0 0.0 0.0 0.0 0.0 0.0 0.0 0.0 0.0 0.0 0.0 0.0 0.0 0.0 0.0
0.0 0.0 0.0 0.0 0.0 0.0 0.0 0.0 0.0 0.0 0.0 0.0 0.0 0.0 0.0 0.0 0.0 0.2 0.0 0.0 0.0 0.0 0.0 0.0 0.0 0.0 0.0 0.0 0.0 0.0 0.0 0.0 0.0 0.0 0.0 0.0 0.0 0.0 0.0 0.0 0.0 0.0 0.0
0.0 0.0 0.0 0.0 0.0 0.0 0.0 0.0 0.0 0.0 0.0 0.0 0.0 0.0 0.1 0.2 0.0 0.2 0.2 0.0 0.0 0.0 0.0 0.0 0.0 0.0 0.0 0.0 0.0 0.0 0.0 0.0 0.0 0.0 0.0 0.0 0.0 0.0 0.0 0.0 0.0 0.0 0.0
0.0 0.0 0.0 0.0 0.0 0.0 0.0 0.0 0.0 0.1 0.1 0.1 0.1 0.2 0.1 0.1 0.2 0.2 0.3 0.1 0.2 0.0 0.0 0.0 0.0 0.0 0.0 0.0 0.0 0.0 0.0 0.0 0.0 0.0 0.0 0.0 0.0 0.0 0.0 0.0 0.0 0.0 0.0
0.1 0.0 0.0 0.0 0.0 0.0 0.0 0.0 0.1 0.1 0.1 0.1 0.1 0.2 0.2 0.2 0.2 0.4 0.6 1.9 1.4 0.0 0.1 0.3 0.0 0.1 0.0 0.0 0.0 0.0 0.0 0.0 0.0 0.0 0.0 0.0 0.0 0.0 0.0 0.0 0.0 0.0 0.0
0.0 0.1 0.0 0.0 0.0 0.0 0.0 0.0 0.1 0.0 0.0 0.1 0.2 0.1 0.3 0.2 0.3 0.3 0.5 0.7 2.8 3.8 0.7 0.1 0.4 0.1 0.0 0.0 0.0 0.0 0.0 0.0 0.0 0.0 0.0 0.0 0.0 0.0 0.0 0.0 0.0 0.0 0.0
0.0 0.0 0.1 0.1 0.1 0.0 0.0 0.0 0.0 0.0 0.0 0.1 0.2 0.2 0.3 0.3 0.3 0.3 0.5 0.4 0.7 1.3 1.3 0.4 0.5 0.4 0.2 0.0 0.1 0.0 0.1 0.0 0.0 0.0 0.0 0.0 0.0 0.0 0.0 0.0 0.0 0.0 0.0
0.2 0.1 0.1 0.2 0.3 0.2 0.1 0.1 0.1 0.1 0.0 0.1 0.1 0.2 0.2 0.2 0.1 0.3 0.3 0.5 0.6 0.9 1.2 1.0 0.6 0.6 0.5 0.4 0.2 0.1 0.0 0.0 0.0 0.0 0.0 0.0 0.0 0.0 0.0 0.0 0.0 0.0 0.0
2.3 2.0 1.6 1.1 1.1 0.6 1.2 0.3 0.4 1.6 1.7 0.5 0.7 0.6 0.8 0.2 0.4 0.2 0.1 0.4 0.6 1.0 1.2 1.7 1.5 1.4 1.3 0.9 0.6 0.4 0.3 0.2 0.1 0.1 0.0 0.0 0.0 0.0 0.0 0.0 0.0 0.0 0.1
7.4 7.0 5.7 4.8 4.4 5.1 4.6 7.4 3.8 1.6 2.3 3.7 3.7 3.1 2.1 1.8 1.4 1.4 1.1 0.5 0.7 0.6 0.5 2.1 2.3 1.8 1.3 1.1 0.9 0.6 0.6 0.3 0.2 0.1 0.0 0.0 0.0 0.0 0.1 0.0 0.1 0.1 0.0
8.6 11.0 14.4 14.3 12.2 8.0 8.9 7.4 7.0 7.4 4.0 6.2 7.5 3.2 3.1 4.1 3.5 2.3 3.3 2.5 2.1 1.4 1.7 1.6 2.0 2.6 3.9 2.1 1.5 1.7 2.6 0.9 0.8 0.3 0.4 0.2 0.1 0.1 0.0 0.1 0.1 0.1 0.2
3.7 9.3 10.3 10.6 9.1 7.6 7.1 4.5 2.9 7.2 6.3 6.0 9.8 7.3 4.7 3.8 3.7 2.5 1.1 3.3 2.7 4.2 6.2 5.1 5.2 7.3 9.8 7.2 7.0 6.3 8.2 7.8 6.8 5.3 3.6 3.4 0.6 0.2 0.2 0.2 0.1 0.1 0.1
0.0 0.6 1.1 0.6 4.0 3.2 2.1 0.8 0.5 1.8 3.5 2.7 2.9 2.9 2.2 1.4 1.7 2.4 2.3 1.5 2.0 4.0 5.4 6.8 7.3 7.9 10.5 11.1 9.4 9.2 12.0 11.4 12.7 9.0 10.6 10.9 7.0 6.1 8.4 6.8 2.2 3.4 1.3
0.8 0.3 0.2 0.1 0.0 0.2 0.3 0.2 0.0 0.2 0.4 1.1 1.1 0.8 0.9 0.5 0.5 0.9 1.4 1.3 1.3 1.3 2.9 2.9 4.2 4.7 5.2 5.0 4.5 5.1 5.7 6.9 9.6 7.8 8.2 9.7 7.9 9.0 7.9 7.0 6.0 6.1 5.2
1.4 1.4 3.3 1.4 1.3 0.1 0.1 0.0 0.1 0.0 0.0 0.0 0.5 0.2 0.3 0.1 0.3 0.2 1.2 0.9 0.3 0.6 0.7 0.7 1.1 1.1 0.6 0.7 1.1 1.2 2.7 2.6 2.4 1.5 1.2 8.0 3.7 5.0 4.0 2.0 0.3 1.6 1.5
2.9 2.4 2.3 0.8 1.3 0.4 0.2 0.3 0.1 0.0 0.7 0.6 0.2 0.0 0.0 0.0 0.0 0.7 1.0 1.2 0.4 0.4 0.1 0.1 0.3 0.4 0.1 0.2 0.2 2.2 6.2 12.0 13.1 9.3 3.0 7.1 6.6 5.8 4.6 2.5 1.8 1.5 1.5
3.0 2.8 2.2 1.4 0.8 0.8 0.3 0.5 0.4 0.4 0.4 0.2 0.2 0.1 0.0 0.2 1.2 1.4 2.6 2.3 2.2 2.7 2.5 1.9 1.7 1.4 1.1 0.7 2.5 1.6 4.6 9.2 7.7 12.9 5.6 7.4 9.7 10.9 17.7 11.3 6.9 5.6 5.1